Flag for Switzerland Weather past 2 weeks in Schaffhausen, Schaffhausen, Switzerland

Now
89 °F

Hot.


Feels Like: 88 °F
Forecast: 60 / 91 °F
Wind: 7 mph from Northeast

Location: Zurich-Kloten

Current Time: Jul 1, 2015 at 5:18:29 PM

Latest Report: Jul 1, 2015 at 4:00 PM


Visibility: N/A

Pressure: 29.99 "Hg

Humidity: 36%

Dew point: 59 °F

Location of SchaffhausenLocation

Historic Weather in Schaffhausen — Graph

°F

Schaffhausen temperature yesterday

Maximum temperature yesterday: 85 °F (at 3:00 PM)
Minimum temperature yesterday: 56 °F (at 6:00 AM)
Average temperature yesterday: 71 °F

Past Weeks' High & Low Weather Summary

 TemperatureHumidityPressure
High89 °F (Jul 1, 4:00 PM)96% (Jun 19, 1:00 AM)30.25 "Hg (Jun 19, 1:00 AM)
Low44 °F (Jun 24, 5:00 AM)25% (Jun 25, 7:00 PM)29.74 "Hg (Jun 22, 10:00 PM)
Average63 °F68%30.09 "Hg
* Reported Jun 16 4:00 PM — Jul 1 4:00 PM, Schaffhausen, Weather by CustomWeather, © 2015

Note: Actual official high and low records may vary slightly from our data, if they occured in-between our weather recording intervals... More about our weather records

Advertising

Schaffhausen weather history for previous 24 hours

 ConditionsComfort  
Time TempWeatherWind HumidityBarometerVisibility
4:00 PM
Wed, Jul 1
89 °FHot.7 mph36%29.99 "HgN/A
3:00 PM87 °FPleasantly warm.3 mph38%30.00 "HgN/A
2:00 PM85 °FWarm.3 mph43%30.02 "HgN/A
1:00 PM84 °FWarm.3 mph48%30.03 "HgN/A
12:00 PM81 °FWarm.3 mph48%30.05 "HgN/A
11:00 AM78 °FWarm.2 mph53%30.06 "HgN/A
10:00 AM74 °FMild.1 mph58%30.08 "HgN/A
9:00 AM71 °FMild.2 mph64%30.09 "HgN/A
8:00 AM67 °FSunny.1 mph74%30.10 "Hg19 mi
7:00 AM61 °FCool.1 mph84%30.11 "HgN/A
6:00 AM57 °FCool.1 mph91%30.12 "HgN/A
5:00 AM57 °FClear.1 mph89%30.11 "Hg16 mi
4:00 AM61 °FCool.3 mph81%30.09 "HgN/A
3:00 AM61 °FCool.2 mph78%30.09 "HgN/A
2:00 AM61 °FClear.5 mph78%30.09 "Hg19 mi
1:00 AM63 °FMild.2 mph74%30.08 "HgN/A
12:00 AM64 °FMild.5 mph69%30.08 "HgN/A
11:00 PM
Tue, Jun 30
68 °FClear.5 mph59%30.07 "Hg19 mi
10:00 PM66 °FMild.3 mph61%30.06 "HgN/A
9:00 PM79 °FPleasantly warm.3 mph33%30.01 "HgN/A
8:00 PM83 °FSunny.6 mph27%30.00 "Hg31 mi
6:00 PM85 °FPleasantly warm.8 mph27%30.00 "HgN/A
Weather by CustomWeather, © 2015

See weather overviewHow to use our weather pages